GW4151 Weather Reports


time (UTC)temp
C
wind
direction
speed
KPH
gust
KPH
rain 1hr
cm
rain 24hr
cm
rain mn
cm
humidity
%
barometer
mb
20260904113731 21 167 1.6 3.2 0.30 3.17 3.17 99 994.5
20260904112226 21 63 1.6 1.6 0.30 3.12 3.12 99 994.9
20260904110725 21 137 6.4 12.9 13.39 2.97 2.97 99 994.7
20260904105220 21 298 19.3 27.4 0.48 0.23 0.23 99 995.1
20260904103720 21 188 0.0 0.0 0.30 0.10 0.10 99 993.5
20260904102217 21 187 0.0 0.0 0.00 0.03 0.03 99 993.7
20260904100716 21 190 0.0 0.0 0.00 0.03 0.03 99 993.2
20260904095212 21 178 0.0 0.0 0.00 0.03 0.03 98 993.3
20260904093710 21 196 0.0 0.0 0.00 0.03 0.03 98 993.0
20260904092207 21 89 0.0 0.0 0.00 0.03 0.03 98 993.1
20260904090705 21 170 0.0 0.0 0.00 0.03 0.03 98 993.1
20260904085201 21 180 0.0 0.0 0.00 0.00 0.00 98 992.4
20260904083700 21 183 0.0 0.0 0.00 0.00 0.00 97 993.3
20260904082158 22 187 0.0 0.0 0.00 0.00 0.00 96 993.3
20260904080656 22 161 0.0 0.0 0.00 0.00 0.00 95 993.3
20260904075154 22 181 0.0 0.0 0.00 0.00 0.00 96 993.3
20260904073649 21 192 0.0 0.0 0.00 0.00 0.00 97 993.1
20260904072147 21 178 0.0 0.0 0.00 0.00 0.00 97 993.8
20260904070643 21 43 1.6 3.2 0.00 0.00 0.00 97 993.5
20260904065141 21 129 0.0 0.0 0.00 0.00 0.00 97 993.6
20260904063638 21 174 0.0 1.6 0.00 0.00 0.00 96 992.9
20260904062137 21 157 4.8 9.7 0.00 0.00 0.00 95 993.5
20260904060636 22 149 4.8 4.8 0.00 0.00 0.00 94 994.2
20260904055133 21 191 1.6 1.6 0.00 0.00 0.00 98 994.6
20260904053631 21 321 0.0 0.0 0.00 0.00 0.00 99 994.9
20260904052130 21 176 0.0 0.0 0.00 0.00 0.00 99 994.5
20260904050628 21 194 0.0 0.0 0.00 0.00 0.00 99 994.4
20260904045124 21 193 0.0 0.0 0.00 0.00 0.00 99 994.5
20260904043624 21 180 0.0 0.0 0.00 0.00 0.00 99 994.6
20260904042122 21 210 0.0 0.0 0.00 0.00 0.00 99 994.8
20260904040621 21 198 0.0 0.0 0.00 0.00 0.00 99 994.9
20260904035118 21 174 0.0 0.0 0.00 0.61 0.61 99 995.1
20260904033615 21 191 0.0 0.0 0.00 0.61 0.61 99 995.3
20260904032112 21 192 0.0 0.0 0.00 0.61 0.61 98 995.3
20260904030609 21 186 0.0 0.0 0.00 0.61 0.61 98 995.2
20260904025107 21 182 0.0 0.0 0.00 0.61 0.61 97 995.1
20260904023606 22 171 0.0 3.2 0.00 0.61 0.61 97 995.2
20260904022104 22 166 0.0 3.2 0.00 0.61 0.61 97 994.8
20260904020601 21 192 0.0 0.0 0.00 0.61 0.61 97 994.5
20260904015101 22 192 0.0 0.0 0.00 0.61 0.61 97 994.7
20260904013600 22 160 0.0 1.6 0.00 0.61 0.61 97 994.5
20260904012055 22 176 0.0 0.0 0.00 0.61 0.61 97 994.6
20260904010552 22 184 0.0 0.0 0.00 0.61 0.61 96 994.5
20260904005049 22 180 0.0 1.6 0.00 0.61 0.61 96 994.3
20260904003547 22 173 0.0 0.0 0.00 0.61 0.61 96 994.2
20260904002044 23 193 0.0 0.0 0.00 0.61 0.61 94 994.1
20260904000538 23 194 0.0 0.0 0.00 0.61 0.61 93 993.7
20260903235037 24 181 0.0 0.0 0.00 0.61 0.61 92 993.5
20260903233535 25 36 4.8 4.8 0.00 0.61 0.61 91 993.6
20260903232032 25 231 1.6 3.2 0.00 0.61 0.61 89 993.6
20260903230529 25 154 3.2 6.4 0.00 0.61 0.61 88 993.4
20260903225027 25 186 0.0 1.6 0.00 0.61 0.61 88 993.5
20260903223524 26 189 1.6 1.6 0.00 0.61 0.61 86 993.3
20260903222023 26 187 0.0 0.0 0.00 0.61 0.61 85 993.4
20260903220521 27 166 3.2 3.2 0.00 0.61 0.61 82 993.5
20260903215021 25 176 0.0 0.0 0.00 0.61 0.61 88 993.7
20260903213516 26 185 0.0 1.6 0.00 0.61 0.61 85 993.9
20260903212014 26 174 3.2 3.2 0.00 0.61 0.61 87 993.9
20260903210512 25 189 0.0 1.6 0.00 0.61 0.61 93 993.9
20260903205008 24 199 1.6 3.2 0.00 0.61 0.61 94 993.5
20260903203507 23 117 3.2 4.8 0.00 0.61 0.61 96 993.2
20260903202003 23 180 0.0 0.0 0.00 0.61 0.61 97 993.5
20260903200503 23 283 3.2 4.8 0.00 0.61 0.61 96 994.1
20260903195001 23 210 0.0 1.6 0.00 0.61 0.61 95 994.1
20260903193500 23 293 1.6 3.2 0.00 0.61 0.61 94 994.5
20260903191958 23 197 0.0 1.6 0.00 0.61 0.61 93 994.7
20260903190454 23 283 3.2 3.2 0.13 0.61 0.61 94 994.3
20260903184949 22 256 3.2 4.8 0.30 0.58 0.58 94 995.5
20260903183447 22 275 4.8 6.4 0.48 0.51 0.51 93 995.8
20260903181948 23 312 4.8 9.7 0.13 0.43 0.43 90 996.1
20260903180442 25 27 3.2 12.9 0.00 0.41 0.41 83 996.5
20260903174941 26 336 4.8 16.1 0.00 0.41 0.41 79 996.0
20260903173437 26 305 6.4 14.5 0.00 0.41 0.41 83 995.5
20260903171935 26 210 3.2 9.7 0.00 0.41 0.41 84 994.7
20260903170430 26 320 9.7 12.9 0.00 0.41 0.41 85 994.5
20260903164930 27 268 11.3 14.5 0.00 0.41 0.41 84 993.8
20260903163427 27 268 4.8 11.3 0.00 0.41 0.41 82 993.1
20260903161926 28 217 9.7 12.9 0.00 0.41 0.41 80 992.8
20260903160422 28 156 6.4 12.9 0.00 0.41 0.41 79 993.1
20260903154918 28 156 3.2 12.9 0.00 0.41 0.41 81 993.1
20260903153415 28 202 9.7 12.9 0.00 0.41 0.41 80 993.5
20260903151914 28 232 6.4 9.7 0.00 0.41 0.41 79 993.5
20260903150410 28 200 3.2 4.8 0.00 0.41 0.41 81 993.9
20260903144905 28 185 3.2 4.8 0.00 0.41 0.41 82 993.6
20260903143405 28 250 1.6 4.8 0.00 0.41 0.41 81 993.6
20260903141902 28 194 3.2 6.4 0.00 0.41 0.41 83 993.5
20260903140400 29 178 6.4 9.7 0.00 0.41 0.41 80 993.3
20260903134855 28 180 1.6 6.4 0.00 0.41 0.41 84 993.3
20260903133351 26 225 4.8 4.8 0.00 0.41 0.41 90 993.5
20260903131847 25 196 0.0 4.8 0.00 0.41 0.41 97 993.4
20260903130346 24 182 1.6 3.2 0.00 0.41 0.41 99 993.5
20260903124845 23 182 0.0 1.6 0.00 0.41 0.41 99 993.4
20260903123340 23 162 0.0 0.0 0.00 0.41 0.41 99 993.5
20260903121839 23 190 1.6 3.2 0.00 0.41 0.41 99 993.7
20260903120334 23 189 0.0 1.6 0.00 0.41 0.41 99 993.8